TimeEST,TemperatureF,Dew PointF,Humidity,Sea Level PressureIn,VisibilityMPH,Wind Direction,Wind SpeedMPH,Gust SpeedMPH,PrecipitationIn,Events,Conditions,WindDirDegrees,DateUTC
12:53 AM,34.0,26.1,73,30.13,10.0,WNW,4.6,-,N/A,,Clear,290,2013-01-18 05:53:00
1:53 AM,34.0,25.0,70,30.15,10.0,WNW,12.7,-,N/A,,Clear,290,2013-01-18 06:53:00
2:53 AM,35.1,24.1,64,30.17,10.0,West,10.4,17.3,N/A,,Overcast,260,2013-01-18 07:53:00
3:53 AM,34.0,23.0,64,30.20,10.0,WNW,17.3,24.2,N/A,,Mostly Cloudy,290,2013-01-18 08:53:00
4:53 AM,32.0,19.0,59,30.25,10.0,NW,23.0,29.9,N/A,,Overcast,310,2013-01-18 09:53:00
5:53 AM,28.9,21.9,75,30.31,8.0,NNW,11.5,-,0.00,,Overcast,330,2013-01-18 10:53:00
6:53 AM,28.9,17.1,61,30.34,10.0,NW,20.7,31.1,N/A,,Overcast,310,2013-01-18 11:53:00
7:53 AM,26.1,12.0,55,30.42,10.0,NW,21.9,31.1,N/A,,Partly Cloudy,310,2013-01-18 12:53:00
8:53 AM,25.0,9.0,51,30.47,10.0,NNW,18.4,25.3,N/A,,Clear,340,2013-01-18 13:53:00
9:53 AM,26.1,8.1,47,30.51,10.0,NW,16.1,-,N/A,,Clear,320,2013-01-18 14:53:00
10:53 AM,27.0,8.1,45,30.53,10.0,NNW,11.5,-,N/A,,Clear,340,2013-01-18 15:53:00
11:53 AM,28.9,8.1,41,30.52,10.0,NNW,10.4,-,N/A,,Clear,330,2013-01-18 16:53:00
12:53 PM,28.9,8.1,41,30.49,10.0,NW,8.1,-,N/A,,Clear,310,2013-01-18 17:53:00
1:53 PM,30.9,7.0,37,30.50,10.0,WNW,11.5,16.1,N/A,,Clear,300,2013-01-18 18:53:00
2:53 PM,32.0,8.1,37,30.49,10.0,NW,5.8,-,N/A,,Clear,310,2013-01-18 19:53:00
3:53 PM,32.0,9.0,38,30.49,10.0,Calm,Calm,-,N/A,,Clear,0,2013-01-18 20:53:00
4:53 PM,32.0,9.0,38,30.49,10.0,SSW,3.5,-,N/A,,Clear,210,2013-01-18 21:53:00
5:53 PM,30.0,10.0,43,30.48,10.0,SSE,5.8,-,N/A,,Clear,150,2013-01-18 22:53:00
6:53 PM,30.0,10.9,45,30.48,10.0,SE,3.5,-,N/A,,Clear,140,2013-01-18 23:53:00
7:53 PM,30.0,10.9,45,30.48,10.0,SSE,8.1,-,N/A,,Clear,150,2013-01-19 00:53:00
8:53 PM,30.0,12.0,47,30.46,10.0,SSE,10.4,-,N/A,,Clear,160,2013-01-19 01:53:00
9:53 PM,30.0,12.9,49,30.45,10.0,South,6.9,-,N/A,,Clear,170,2013-01-19 02:53:00
10:53 PM,30.0,15.1,54,30.42,10.0,South,8.1,-,N/A,,Clear,180,2013-01-19 03:53:00
11:53 PM,28.9,17.1,61,30.40,10.0,South,5.8,-,N/A,,Clear,180,2013-01-19 04:53:00